{"data":{"norad_id":64439,"intl_designator":"2025-130B","name":"STARLINK-34456","alt_names":[],"object_type":"PAYLOAD","status":"ACTIVE","operator":null,"country":"US","launch_date":"2025-06-18","launch_site_code":"AFETR","launch_vehicle":null,"mission":null,"orbit_class":"UNKNOWN","rcs_meters":null,"size_class":null,"mass_kg":null,"dimensions":null,"purposes":["comms"],"wikipedia_slug":null,"has_3d_model":false,"image_url":null,"decayed_at":null,"tle_current":{"epoch":"2026-05-25T02:44:41.122176Z","epoch_age_seconds":61224,"freshness":"FRESH","line1":"1 64439U 25130B   26145.11436484  .00019684  00000+0  59216-3 0  9999","line2":"2 64439  53.1609  92.8750 0001447  84.7067 275.4101 15.34401644 52415","mean_motion":15.34401644,"eccentricity":0.0001447,"inclination_deg":53.1609,"raan_deg":92.875,"arg_perigee_deg":84.7067,"mean_anomaly_deg":275.4101,"bstar":0.00059216,"rev_number":5241,"period_min":93.847657530273,"perigee_km":461.7084850213,"apogee_km":463.68822277272,"semimajor_km":6840.835353897,"source":"CELESTRAK","updated_at":"2026-05-25T13:38:20.446249Z"}}}